Regional Weather Roundup
Issued by NWS

Home | Current Version | Previous Version | Graphics & Text | Print | Product List | Glossary Off
Versions: 1 2 3 4 5 6 7 8 9 10 11 12 13 14 15 16 17 18 19 20 21 22 23 24 25 26 27 28 29 30 31 32 33 34 35 36 37 38 39 40 41 42 43 44 45 46 47 48 49 50

000
ASUS43 KLSX 221207
RWRMO

WEATHER SUMMARY FOR MISSOURI
NATIONAL WEATHER SERVICE SPRINGFIELD MO
700 AM CDT SUN OCT 22 2017

NOTE: "FAIR" INDICATES FEW OR NO CLOUDS BELOW 12,000 FEET WITH NO
       SIGNIFICANT WEATHER AND/OR OBSTRUCTIONS TO VISIBILITY.
       CURRENT SKY AND/OR WEATHER CONDITIONS ARE NOT AVAILABLE FOR
       CHILLICOTHE AND FARMINGTON.

MOZ001>031-035>038-043-044-053-054-221300-
...NORTHERN AND WESTERN MISSOURI...

CITY           SKY/WX    TMP DP  RH WIND       PRES   REMARKS
KANSAS CTY INT CLOUDY    47  46  97 W6        30.07S
6HR MIN TEMP:  47; 6HR MAX TEMP:  51; 6HR PCP:  0.29;

KANSAS C DTWN  CLOUDY    51  48  89 NW6       30.06S
6HR MIN TEMP:  51; 6HR MAX TEMP:  54; 6HR PCP:  0.79;

LEE`S SUMMIT   CLOUDY    49  49 100 NW9       30.06R
6HR MIN TEMP:  49; 6HR MAX TEMP:  52; 6HR PCP:  0.69;

ST JOSEPH      CLOUDY    48  47  96 NW3       30.08R
6HR MIN TEMP:  48; 6HR MAX TEMP:  52; 6HR PCP:  0.06;

CHILLICOTHE      N/A     50  49  96 NW8       30.05R
6HR MIN TEMP:  50; 6HR MAX TEMP:  53; 6HR PCP:  0.47;

KIRKSVILLE     LGT RAIN  50  50 100 N9G18     29.98R
6HR MIN TEMP:  50; 6HR MAX TEMP:  61; 6HR PCP:  0.68;


$$
MOZ066>068-077>081-088>096-101>105-221300-
...SOUTHWEST MISSOURI...

CITY           SKY/WX    TMP DP  RH WIND       PRES   REMARKS
SPRINGFIELD    RAIN      56  56 100 NW10      29.98S
6HR MIN TEMP:  56; 6HR MAX TEMP:  60;

JOPLIN         LGT RAIN  52  52 100 NW6       30.05R
6HR MIN TEMP:  51; 6HR MAX TEMP:  58; 6HR PCP:  0.85;

BRANSON        LGT RAIN  57  57 100 SW5       29.99S

$$
MOZ032>034-039>042-045>050-055>058-069>072-221300-
...CENTRAL MISSOURI...

CITY           SKY/WX    TMP DP  RH WIND       PRES   REMARKS
COLUMBIA       CLOUDY    54  53  97 N9        29.95R
6HR MIN TEMP:  54; 6HR MAX TEMP:  69; 6HR PCP:  0.42;

JEFFERSON CITY CLOUDY    56  53  90 CALM      29.96R
6HR MIN TEMP:  55; 6HR MAX TEMP:  69; 6HR PCP:  0.34;

ROLLA          LGT RAIN  58  58 100 NW8       29.96R
6HR MIN TEMP:  58; 6HR MAX TEMP:  71; 6HR PCP:  0.22;

SEDALIA        LGT RAIN  53  53 100 NW9       30.02R
6HR MIN TEMP:  53; 6HR MAX TEMP:  62; 6HR PCP:  0.60;

WHITEMAN AFB   HVY RAIN  50  49  94 NW12      29.99R
WARRENSBURG    RAIN      48  46  93 NW8       30.02F
OSAGE BEACH    LGT RAIN  55  54  96 W5        29.98R

$$
MOZ051-052-059>065-221300-
...EAST CENTRAL MISSOURI...

CITY           SKY/WX    TMP DP  RH WIND       PRES   REMARKS
ST LOUIS INTL  CLOUDY    70  65  84 SE12      29.88S
6HR MIN TEMP:  69; 6HR MAX TEMP:  71; 6HR PCP: TRACE;

SPIRIT OF STL  HVY RAIN  63  62  97 W7        29.89R FOG
6HR MIN TEMP:  63; 6HR MAX TEMP:  73; 6HR PCP:  0.16;

ST CHARLES     LGT RAIN  69  65  86 S13       29.87R
6HR MIN TEMP:  69; 6HR MAX TEMP:  72; 6HR PCP: TRACE;


$$
MOZ072>076-082>087-097>100-106>115-221300-
...SOUTH CENTRAL AND SOUTHEAST MISSOURI...

CITY           SKY/WX    TMP DP  RH WIND       PRES   REMARKS
CAPE GIRARDEAU CLOUDY    67  63  87 SE18G29   29.95F
6HR MIN TEMP:  67; 6HR MAX TEMP:  70; 6HR PCP:  0.04;

FARMINGTON     HVY RAIN  66  64  94 W14G22    29.93R
6HR MIN TEMP:  66; 6HR MAX TEMP:  69; 6HR PCP:  0.04;

POPLAR BLUFF   CLOUDY    71  65  81 S14G26    29.92R
6HR MIN TEMP:  70; 6HR MAX TEMP:  72; 6HR PCP: TRACE;

WEST PLAINS    CLOUDY    59  57  93 N5        29.97R
6HR MIN TEMP:  58; 6HR MAX TEMP:  72; 6HR PCP:  0.41;


$$



USA.gov is the U.S. government's official web portal to all federal, state and local government web resources and services.